Change the Weather History Date:

Saturday, March 2, 2013

  Actual Average Record
Temperature  
Mean Temperature 30 °F -  
Max Temperature 32 °F 48 °F 74 °F (2012)
Min Temperature 28 °F 30 °F 17 °F (2005)
Degree Days  
Heating Degree Days 35    
Moisture  
Dew Point 24 °F    
Average Humidity 78    
Maximum Humidity 100    
Minimum Humidity 69    
Precipitation  
Precipitation 0.01 in - - ()
Sea Level Pressure  
Sea Level Pressure 30.08 in    
Wind  
Wind Speed 8 mph (NNW)    
Max Wind Speed 12 mph    
Max Gust Speed 17 mph    
Visibility 10 miles    
Events Snow    
Averages and records for this station are not official NWS values.
T = Trace of Precipitation, MM = Missing Value Source: NWS Daily Summary

Daily Weather History Graph

Daily Weather History Graph

Search for Another Location

Airport or City:

Trip Planner

Search our weather history database for the weather conditions in past years. The results will help you decide how hot, cold, wet, or windy it might be!

Date:

Astronomy

Mar. 02, 2013 Rise Set
Actual Time 7:13 AM EST 6:38 PM EST
Civil Twilight 6:47 AM EST 7:05 PM EST
Nautical Twilight 6:17 AM EST 7:35 PM EST
Astronomical Twilight 5:46 AM EST 8:06 PM EST
Moon No Moon Rise 9:47 AM EST (3/2)
Length of Visible Light 12h 17m
Length of Day
11h 24m
Waning Gibbous, 74% of the Moon is Illuminated
Mar 2
Waning Gibbous
Mar 4
Last Quarter
Mar 11
New
Mar 19
First Quarter
Mar 27
Full

Hourly Weather History & Observations

Time (EST) Temp. Windchill Dew Point Humidity Pressure Visibility Wind Dir Wind Speed Gust Speed Precip Events Conditions
12:44 AM 32.0 °F 24.2 °F 32.0 °F 100% 30.03 in 4.0 mi NNW 9.2 mph - N/A Snow Light Snow
12:55 AM 32.2 °F 25.8 °F 30.9 °F 95% 30.03 in 7.0 mi North 6.9 mph - 0.00 in Snow Light Snow
1:21 AM 32.0 °F 24.8 °F 30.2 °F 93% 30.03 in 8.0 mi North 8.1 mph - N/A Snow Light Snow
1:55 AM 32.2 °F 25.8 °F 30.7 °F 94% 30.03 in 8.0 mi North 6.9 mph - 0.01 in Snow Light Snow
2:14 AM 32.0 °F 23.6 °F 30.2 °F 93% 30.03 in 7.0 mi North 10.4 mph - N/A Snow Light Snow
2:22 AM 32.0 °F 24.8 °F 30.2 °F 93% 30.03 in 9.0 mi NNE 8.1 mph - N/A Snow Light Snow
2:29 AM 32.0 °F 23.6 °F 30.2 °F 93% 30.03 in 8.0 mi NNE 10.4 mph - N/A Snow Light Snow
2:50 AM 32.0 °F 23.6 °F 28.4 °F 87% 30.03 in 10.0 mi North 10.4 mph - N/A Snow Light Snow
2:53 AM 32.0 °F 24.8 °F 28.4 °F 87% 30.03 in 10.0 mi North 8.1 mph - N/A Snow Light Snow
2:55 AM 31.3 °F 23.3 °F 28.9 °F 91% 30.03 in 10.0 mi North 9.2 mph - 0.00 in Snow Light Snow
3:16 AM 32.0 °F 23.6 °F 28.4 °F 87% 30.03 in 10.0 mi North 10.4 mph - N/A Snow Light Snow
3:55 AM 30.7 °F 23.3 °F 28.0 °F 90% 30.02 in 10.0 mi NNE 8.1 mph 17.3 mph 0.00 in Snow Light Snow
4:19 AM 30.2 °F 22.6 °F 28.4 °F 93% 30.03 in 10.0 mi North 8.1 mph - N/A Snow Light Snow
4:29 AM 30.2 °F 23.4 °F 28.4 °F 93% 30.03 in 10.0 mi North 6.9 mph - N/A Snow Light Snow
4:30 AM 30.2 °F 22.6 °F 28.4 °F 93% 30.03 in 10.0 mi North 8.1 mph - N/A Snow Light Snow
4:55 AM 30.4 °F 22.9 °F 27.0 °F 87% 30.03 in 10.0 mi North 8.1 mph - 0.00 in Snow Light Snow
5:02 AM 30.2 °F 23.4 °F 26.6 °F 86% 30.03 in 10.0 mi North 6.9 mph - N/A Snow Light Snow
5:04 AM 30.2 °F 22.6 °F 26.6 °F 86% 30.03 in 10.0 mi North 8.1 mph - N/A Snow Light Snow
5:05 AM 30.2 °F 21.9 °F 26.6 °F 86% 30.03 in 10.0 mi North 9.2 mph - N/A Snow Light Snow
5:22 AM 30.2 °F 24.3 °F 24.8 °F 80% 30.04 in 10.0 mi NNE 5.8 mph - N/A Snow Light Snow
5:23 AM 30.2 °F 24.3 °F 24.8 °F 80% 30.04 in 10.0 mi North 5.8 mph - N/A   Overcast
5:55 AM 29.7 °F 23.7 °F 24.3 °F 80% 30.04 in 10.0 mi North 5.8 mph - 0.00 in   Overcast
6:45 AM 28.4 °F 20.4 °F 23.0 °F 80% 30.05 in 10.0 mi North 8.1 mph - N/A Snow Light Snow
6:55 AM 28.9 °F 23.9 °F 23.5 °F 80% 30.05 in 10.0 mi North 4.6 mph - 0.00 in Snow Light Snow
7:36 AM 28.4 °F 22.2 °F 23.0 °F 80% 30.06 in 10.0 mi North 5.8 mph - N/A   Overcast
7:37 AM 28.4 °F 23.3 °F 23.0 °F 80% 30.06 in 10.0 mi North 4.6 mph - N/A   Overcast
7:38 AM 28.4 °F 23.3 °F 23.0 °F 80% 30.06 in 10.0 mi North 4.6 mph - N/A Snow Light Snow
7:43 AM 28.4 °F 22.2 °F 23.0 °F 80% 30.06 in 10.0 mi North 5.8 mph - N/A   Overcast
7:50 AM 28.4 °F 22.2 °F 23.0 °F 80% 30.07 in 10.0 mi North 5.8 mph - N/A Snow Light Snow
7:54 AM 28.4 °F 22.2 °F 23.0 °F 80% 30.07 in 10.0 mi North 5.8 mph - N/A Snow Light Snow
7:55 AM 28.9 °F 22.8 °F 23.4 °F 80% 30.07 in 10.0 mi North 5.8 mph - 0.00 in Snow Light Snow
8:00 AM 28.4 °F 23.3 °F 23.0 °F 80% 30.07 in 10.0 mi North 4.6 mph - N/A   Overcast
8:01 AM 28.4 °F 22.2 °F 23.0 °F 80% 30.07 in 10.0 mi North 5.8 mph - N/A   Overcast
8:02 AM 28.4 °F 21.2 °F 23.0 °F 80% 30.07 in 10.0 mi North 6.9 mph - N/A   Overcast
8:18 AM 28.4 °F 19.7 °F 23.0 °F 80% 30.08 in 10.0 mi North 9.2 mph - N/A   Overcast
8:23 AM 28.4 °F 19.1 °F 23.0 °F 80% 30.08 in 10.0 mi North 10.4 mph - N/A   Overcast
8:44 AM 28.4 °F 22.2 °F 23.0 °F 80% 30.08 in 10.0 mi North 5.8 mph - N/A   Overcast
8:54 AM 30.2 °F 22.6 °F 23.0 °F 75% 30.08 in 10.0 mi North 8.1 mph - N/A   Overcast
8:55 AM 29.7 °F 22.8 °F 23.4 °F 77% 30.08 in 10.0 mi North 6.9 mph - 0.00 in   Overcast
9:33 AM 30.2 °F 21.3 °F 23.0 °F 75% 30.09 in 10.0 mi North 10.4 mph 17.3 mph N/A   Overcast
9:42 AM 30.2 °F 22.6 °F 23.0 °F 75% 30.09 in 10.0 mi NNE 8.1 mph - N/A   Overcast
9:45 AM 30.2 °F 23.4 °F 23.0 °F 75% 30.09 in 10.0 mi NNE 6.9 mph - N/A   Overcast
9:49 AM 30.2 °F 22.6 °F 24.8 °F 80% 30.09 in 10.0 mi North 8.1 mph - N/A   Overcast
9:55 AM 30.2 °F 21.9 °F 24.4 °F 79% 30.09 in 10.0 mi North 9.2 mph - 0.00 in   Overcast
10:28 AM 30.2 °F 21.9 °F 23.0 °F 75% 30.09 in 10.0 mi North 9.2 mph - N/A   Overcast
10:50 AM 30.2 °F 20.8 °F 23.0 °F 75% 30.09 in 10.0 mi North 11.5 mph - N/A   Overcast
10:55 AM 30.2 °F 21.9 °F 23.5 °F 76% 30.09 in 10.0 mi NNW 9.2 mph - 0.00 in   Overcast
11:20 AM 30.2 °F 21.3 °F 24.8 °F 80% 30.10 in 10.0 mi NNW 10.4 mph - N/A   Overcast
11:32 AM 30.2 °F 20.8 °F 23.0 °F 75% 30.10 in 10.0 mi NW 11.5 mph - N/A   Overcast
11:47 AM 32.0 °F 23.6 °F 24.8 °F 75% 30.10 in 10.0 mi NNW 10.4 mph - N/A   Overcast
11:50 AM 32.0 °F 23.6 °F 24.8 °F 75% 30.10 in 10.0 mi NNW 10.4 mph - N/A   Overcast
11:51 AM 32.0 °F 24.8 °F 24.8 °F 75% 30.10 in 10.0 mi NNW 8.1 mph - N/A   Overcast
11:54 AM 32.0 °F 24.2 °F 24.8 °F 75% 30.10 in 10.0 mi NNW 9.2 mph - N/A   Overcast
11:55 AM 31.5 °F 24.2 °F 24.3 °F 75% 30.10 in 10.0 mi NNW 8.1 mph - 0.00 in   Overcast
12:01 PM 32.0 °F 24.8 °F 24.8 °F 75% 30.10 in 10.0 mi NNW 8.1 mph - N/A   Overcast
12:03 PM 32.0 °F 25.6 °F 24.8 °F 75% 30.10 in 10.0 mi North 6.9 mph - N/A   Overcast
12:12 PM 32.0 °F 23.0 °F 23.0 °F 69% 30.10 in 10.0 mi North 11.5 mph - N/A   Overcast
12:28 PM 32.0 °F 24.2 °F 24.8 °F 75% 30.09 in 10.0 mi NNW 9.2 mph - N/A   Overcast
12:29 PM 32.0 °F 23.6 °F 24.8 °F 75% 30.09 in 10.0 mi NNW 10.4 mph - N/A   Overcast
12:32 PM 32.0 °F 23.0 °F 23.0 °F 69% 30.10 in 10.0 mi NNW 11.5 mph - N/A   Overcast
12:34 PM 32.0 °F 24.2 °F 23.0 °F 69% 30.10 in 10.0 mi NNW 9.2 mph - N/A   Overcast
12:48 PM 32.0 °F 23.6 °F 24.8 °F 75% 30.09 in 9.0 mi NNW 10.4 mph - N/A Snow Light Snow
12:52 PM 32.0 °F 24.2 °F 24.8 °F 75% 30.09 in 9.0 mi NNW 9.2 mph - N/A Snow Light Snow
12:55 PM 31.3 °F 23.3 °F 25.3 °F 79% 30.09 in 9.0 mi NNW 9.2 mph - 0.00 in Snow Light Snow
1:18 PM 32.0 °F 24.8 °F 24.8 °F 75% 30.09 in 10.0 mi North 8.1 mph - N/A   Overcast
1:35 PM 30.2 °F 22.6 °F 24.8 °F 80% 30.08 in 10.0 mi North 8.1 mph - N/A Snow Light Snow
2:55 PM 30.6 °F 23.8 °F 24.8 °F 79% 30.08 in 10.0 mi NNW 6.9 mph - 0.00 in Snow Light Snow
3:08 PM 30.2 °F 21.3 °F 24.8 °F 80% 30.08 in 10.0 mi NW 10.4 mph - N/A   Overcast
3:09 PM 30.2 °F 21.9 °F 24.8 °F 80% 30.08 in 10.0 mi NW 9.2 mph - N/A Snow Light Snow
3:26 PM 30.2 °F 21.9 °F 23.0 °F 75% 30.08 in 10.0 mi NNW 9.2 mph - N/A   Overcast
3:50 PM 30.2 °F 20.8 °F 23.0 °F 75% 30.09 in 10.0 mi North 11.5 mph - N/A Snow Light Snow
3:52 PM 30.2 °F 20.8 °F 23.0 °F 75% 30.09 in 10.0 mi NNW 11.5 mph - N/A   Overcast
3:55 PM 30.2 °F 21.9 °F 23.5 °F 76% 30.09 in 10.0 mi NNW 9.2 mph - 0.00 in   Overcast
4:02 PM 30.2 °F 21.3 °F 23.0 °F 75% 30.09 in 10.0 mi NNW 10.4 mph - N/A Snow Light Snow
4:31 PM 30.2 °F 21.9 °F 23.0 °F 75% 30.09 in 10.0 mi NW 9.2 mph - N/A   Overcast
4:32 PM 30.2 °F 21.3 °F 23.0 °F 75% 30.09 in 10.0 mi NW 10.4 mph - N/A Snow Light Snow
4:40 PM 30.2 °F 21.3 °F 23.0 °F 75% 30.09 in 10.0 mi NW 10.4 mph - N/A   Overcast
4:49 PM 30.2 °F 22.6 °F 23.0 °F 75% 30.09 in 10.0 mi NW 8.1 mph - N/A   Overcast
4:53 PM 30.2 °F 21.9 °F 23.0 °F 75% 30.09 in 10.0 mi NNW 9.2 mph - N/A   Overcast
4:55 PM 30.2 °F 23.4 °F 22.6 °F 73% 30.09 in 10.0 mi NW 6.9 mph - 0.00 in   Overcast
4:59 PM 30.2 °F 22.6 °F 23.0 °F 75% 30.09 in 10.0 mi NW 8.1 mph - N/A   Overcast
5:00 PM 30.2 °F 22.6 °F 23.0 °F 75% 30.09 in 10.0 mi NW 8.1 mph - N/A   Overcast
5:04 PM 30.2 °F 21.9 °F 23.0 °F 75% 30.09 in 10.0 mi NW 9.2 mph - N/A Snow Light Snow
5:05 PM 30.2 °F 22.6 °F 23.0 °F 75% 30.09 in 10.0 mi NW 8.1 mph - N/A   Overcast
5:11 PM 30.2 °F 23.4 °F 23.0 °F 75% 30.10 in 10.0 mi NNW 6.9 mph - N/A Snow Light Snow
5:21 PM 30.2 °F 23.4 °F 23.0 °F 75% 30.10 in 10.0 mi NNW 6.9 mph - N/A   Overcast
5:34 PM 30.2 °F 21.9 °F 23.0 °F 75% 30.10 in 10.0 mi NNW 9.2 mph - N/A   Overcast
5:38 PM 30.2 °F 23.4 °F 23.0 °F 75% 30.10 in 10.0 mi NW 6.9 mph - N/A   Overcast
5:39 PM 30.2 °F 23.4 °F 23.0 °F 75% 30.10 in 10.0 mi NW 6.9 mph - N/A   Overcast
5:40 PM 30.2 °F 23.4 °F 23.0 °F 75% 30.10 in 10.0 mi NW 6.9 mph - N/A   Overcast
5:42 PM 30.2 °F 21.9 °F 23.0 °F 75% 30.10 in 10.0 mi NW 9.2 mph - N/A   Overcast
5:43 PM 30.2 °F 21.9 °F 23.0 °F 75% 30.11 in 10.0 mi NNW 9.2 mph - N/A   Overcast
5:49 PM 30.2 °F 24.3 °F 23.0 °F 75% 30.11 in 10.0 mi NNW 5.8 mph - N/A   Overcast
5:55 PM 30.4 °F 23.6 °F 22.1 °F 71% 30.11 in 10.0 mi NW 6.9 mph - 0.00 in   Overcast
6:03 PM 30.2 °F 22.6 °F 21.2 °F 69% 30.11 in 10.0 mi NW 8.1 mph - N/A   Overcast
6:09 PM 30.2 °F 20.8 °F 21.2 °F 69% 30.11 in 10.0 mi NNW 11.5 mph - N/A   Overcast
6:19 PM 30.2 °F 21.9 °F 21.2 °F 69% 30.12 in 10.0 mi NW 9.2 mph - N/A   Overcast
6:21 PM 30.2 °F 22.6 °F 21.2 °F 69% 30.12 in 10.0 mi NW 8.1 mph - N/A   Overcast
6:22 PM 30.2 °F 22.6 °F 21.2 °F 69% 30.11 in 10.0 mi NNW 8.1 mph - N/A   Overcast
6:32 PM 30.2 °F 21.9 °F 21.2 °F 69% 30.12 in 10.0 mi NNW 9.2 mph - N/A   Overcast
6:37 PM 30.2 °F 23.4 °F 21.2 °F 69% 30.12 in 10.0 mi North 6.9 mph - N/A   Overcast
6:40 PM 30.2 °F 22.6 °F 23.0 °F 75% 30.12 in 10.0 mi North 8.1 mph - N/A   Overcast
6:49 PM 30.2 °F 24.3 °F 23.0 °F 75% 30.12 in 10.0 mi North 5.8 mph - N/A   Overcast
6:55 PM 29.7 °F 22.8 °F 22.1 °F 73% 30.12 in 10.0 mi NNW 6.9 mph - 0.00 in   Overcast
7:55 PM 29.5 °F 23.4 °F 20.5 °F 69% 30.13 in 10.0 mi NW 5.8 mph - N/A   Overcast
8:55 PM 28.9 °F 23.9 °F 19.8 °F 69% 30.13 in 10.0 mi WNW 4.6 mph - N/A   Overcast
9:50 PM 28.4 °F 23.3 °F 21.2 °F 74% 30.14 in 10.0 mi NW 4.6 mph - N/A Snow Light Snow
9:55 PM 29.1 °F 24.1 °F 21.0 °F 72% 30.13 in 10.0 mi NW 4.6 mph - 0.00 in Snow Light Snow
9:58 PM 28.4 °F 22.2 °F 21.2 °F 74% 30.13 in 10.0 mi NW 5.8 mph - N/A   Overcast
10:06 PM 28.4 °F 22.2 °F 21.2 °F 74% 30.13 in 10.0 mi NW 5.8 mph - N/A   Overcast
10:09 PM 28.4 °F 22.2 °F 21.2 °F 74% 30.13 in 10.0 mi WNW 5.8 mph - N/A   Overcast
10:55 PM 28.9 °F 23.9 °F 21.4 °F 73% 30.13 in 10.0 mi WNW 4.6 mph - 0.00 in   Overcast
11:55 PM 28.4 °F 23.3 °F 22.3 °F 78% 30.13 in 10.0 mi West 4.6 mph - N/A   Overcast